Hourly Data Report for May 30, 2021

MANIWAKI AIRPORT
QUEBEC
Current Station Operator: ECCC - MSC

46°16'29.000" N
75°59'31.000" W
199.70 m
7034482
71721
WMJ

Download Data

Hourly Data (May 2021)
Hourly Data Report for May 30, 2021
TIME
LST
Temp Definition
°C
Dew Point Definition
°C
Rel Hum Definition
%
Precip. Amount Definition
mm

Wind Dir Definition
10's deg

Wind Spd Definition
km/h
Visibility Definition
km
Stn Press Definition
kPa
Hmdx Definition


Wind Chill Definition


Weather Definition


00:00 2.1 -1.1 80 0.0 0 1   100.07     LegendNANA
01:00 1.4 -1.3 82 0.0 35 4   100.10     LegendNANA
02:00 0.9 -0.7 89 0.0 36 3   100.15     LegendNANA
03:00 0.1 -0.8 93 0.0 35 4   100.19     LegendNANA
04:00 -0.2 -0.9 95 0.0 2 5   100.22   -2 LegendNANA
05:00 0.7 -1.1 88 0.0 2 2   100.27     LegendNANA
06:00 5.7 2.1 78 0.0 2 4   100.32     LegendNANA
07:00 9.1 1.3 58 0.0 5 3   100.33     LegendNANA
08:00 12.5 0.6 44 0.0 36 4   100.34     LegendNANA
09:00 15.6 -0.7 33 0.0 13 6   100.33     LegendNANA
10:00 17.3 -1.8 27 0.0 16 8   100.29     LegendNANA
11:00 17.3 -2.5 26 0.0 13 9   100.20     LegendNANA
12:00 18.8 -2.0 24 0.0 14 10   100.14     LegendNANA
13:00 18.7 -3.5 22 0.0 4 7   100.07     LegendNANA
14:00 20.2 -1.0 24 0.0 4 6   100.01     LegendNANA
15:00 20.5 -0.4 25 0.0 17 10   99.97     LegendNANA
16:00 20.3 -2.0 22 0.0 10 8   99.91     LegendNANA
17:00 20.3 -1.6 23 0.0 27 5   99.89     LegendNANA
18:00 19.9 -0.7 25 0.0 16 9   99.90     LegendNANA
19:00 16.6 1.2 35 0.0 16 13   99.95     LegendNANA
20:00 13.6 1.6 44 0.0 18 7   99.99     LegendNANA
21:00 12.3 2.9 53 0.0 16 9   100.01     LegendNANA
22:00 10.1 2.7 60 0.0 16 7   100.02     LegendNANA
23:00 6.7 2.7 75 0.0 17 3   100.03     LegendNANA

Notes on Data Quality.

Legend

  • E = Estimated
  • M = Missing
  • NA = Not Available*
  • [empty] = Indicates an unobserved value
Date modified: